Location: LDNL
(36.4545°S, 141.6685°E)
Time: 10:57:42
(UTC+10:00)

Vanguard 1 - All Passes

Search period start: 08 August 2022 00:00
Search period end: 18 August 2022 00:00
Orbit: 648 x 3833 km, 34.3° (Epoch: 07 August)

Date Brightness Start Highest point End Pass type
(mag) Time Alt. Az. Time Alt. Az. Time Alt. Az.
08 Aug - 01:42:38 10° NW 01:44:32 11° NNW 01:46:38 10° NNW night (unlit)
08 Aug - 16:38:04 10° NW 16:44:22 28° NNE 16:48:46 10° E daylight
08 Aug - 18:59:09 10° WNW 19:04:22 62° N 19:08:44 10° E visible
08 Aug - 21:19:45 10° W 21:24:06 56° N 21:29:21 10° ENE visible
08 Aug - 23:39:58 10° WNW 23:44:09 23° NNW 23:49:56 10° NNE night (unlit)
09 Aug - 14:39:18 10° N 14:44:06 14° NNE 14:47:54 10° NE daylight
09 Aug - 16:58:20 10° NW 17:05:05 38° NNE 17:09:39 10° E daylight
09 Aug - 19:19:56 10° W 19:25:00 68° N 19:29:26 10° E visible
09 Aug - 21:40:29 10° W 21:44:43 45° NNW 21:49:59 10° ENE visible
10 Aug - 00:01:27 10° WNW 00:04:55 16° NNW 00:09:22 10° NNE night (unlit)
10 Aug - 14:58:01 10° NNW 15:05:02 21° NNE 15:09:55 10° ENE daylight
10 Aug - 17:18:54 10° WNW 17:25:47 48° NNE 17:30:24 10° E daylight
10 Aug - 19:40:44 10° W 19:45:40 69° N 19:50:07 10° E visible
10 Aug - 22:01:17 10° W 22:05:21 34° NNW 22:10:26 10° NE visible
11 Aug - 00:24:34 10° NW 00:25:44 10° NNW 00:26:59 10° NNW night (unlit)
11 Aug - 15:17:38 10° NNW 15:25:54 28° NNE 15:31:14 10° E daylight
11 Aug - 17:39:39 10° WNW 17:46:28 58° N 17:51:04 10° E daylight
11 Aug - 20:01:32 10° W 20:06:18 63° N 20:10:47 10° ENE visible
11 Aug - 22:22:14 10° WNW 22:25:58 25° NNW 22:30:36 10° NNE night (unlit)
12 Aug - 13:18:45 10° N 13:24:54 15° NNE 13:29:40 10° ENE daylight
12 Aug - 15:37:46 10° NW 15:46:43 37° NNE 15:52:12 10° E daylight
12 Aug - 18:00:31 10° WNW 18:07:08 67° N 18:11:42 10° E daylight
12 Aug - 20:22:20 10° W 20:26:55 53° NNW 20:31:23 10° ENE visible
12 Aug - 22:43:32 10° WNW 22:46:37 17° NNW 22:50:16 10° NNE night (unlit)
13 Aug - 13:37:00 10° NNW 13:45:55 21° NNE 13:52:03 10° ENE daylight
13 Aug - 15:58:15 10° NW 16:07:30 46° NNE 16:12:59 10° E daylight
13 Aug - 18:21:27 10° W 18:27:49 71° N 18:32:20 10° E visible
13 Aug - 20:43:10 10° W 20:47:30 41° NNW 20:51:53 10° NE visible
13 Aug - 23:06:02 10° NW 23:07:17 11° NNW 23:08:37 10° NNW night (unlit)
14 Aug - 13:56:18 10° NNW 14:06:54 28° NNE 14:13:34 10° E daylight
14 Aug - 16:19:00 10° WNW 16:28:14 56° NNE 16:33:40 10° E daylight
14 Aug - 18:42:24 10° W 18:48:29 70° N 18:52:57 10° E visible
14 Aug - 21:04:05 10° W 21:08:04 29° NNW 21:12:10 10° NE visible
15 Aug - 11:58:00 10° N 12:05:04 14° NNE 12:10:42 10° ENE daylight
15 Aug - 14:16:13 10° NW 14:27:48 36° NNE 14:34:40 10° E daylight
15 Aug - 16:39:57 10° WNW 16:48:59 65° N 16:54:18 10° E daylight
15 Aug - 19:03:20 10° W 19:09:07 63° N 19:13:31 10° ENE visible
15 Aug - 21:25:14 10° WNW 21:28:35 20° NNW 21:32:05 10° NNE visible
16 Aug - 12:15:32 10° N 12:26:10 20° NNE 12:33:40 10° ENE daylight
16 Aug - 14:36:33 10° NW 14:48:41 45° NNE 14:55:32 10° E daylight
16 Aug - 17:00:59 10° WNW 17:09:42 72° N 17:14:54 10° E daylight
16 Aug - 19:24:16 10° W 19:29:44 52° NNW 19:34:02 10° ENE visible
16 Aug - 21:46:58 10° WNW 21:49:06 13° NNW 21:51:19 10° N visible
17 Aug - 12:34:23 10° NNW 12:47:13 27° NNE 12:55:30 10° E daylight
17 Aug - 14:57:14 10° NW 15:09:32 54° NNE 15:16:16 10° E daylight
17 Aug - 17:22:05 10° W 17:30:26 75° N 17:35:29 10° E daylight
17 Aug - 19:45:14 10° W 19:50:16 40° NNW 19:54:25 10° NE visible
